Погода в Учаджи

Погода в Учаджи : погода сейчас, прогноз погоды и архив. Всё, что Вы хотите узнать о погоде в Учаджи!

Хотите узнать прогноз погоды в Учаджи? Тогда Вам сюда: Погода в Учаджи

Поиск расширенной информации на нашем сайте:

Другие новости

Новости СМИ2

Главная страница сайта

Новости сайта

03.07.2017

Напоминаем, что на нашем специализированном сайте Метеоцентр.Азия вы можете получить высокодетализированные автоматические прогнозы погоды по пунктам России, СНГ и мира в авиационном формате (включающие направление и скорость ветра, видимость, явления погоды, количество и форму облачности, нижнюю и верхнюю границу облачности).


Погода в Учаджи - сегодня

Время (UTC), дата Ветер
(°,м/с) 
Видим.   Явления Облачность Т
(°С)
Тd
(°С)
f(%) Тe
(°С)
Pmin
(гПа)
dP
(гПа)
Po
(мм)
O2
(г/м3)
Тmin Tmax R s Состояние
почвы
15 18.11.18 тихо ()   10 км    ясно 
+10 +9.2 95 +10  1024.9  0.3  751  290    +15.8       
18 18.11.18 160 (Ю) 10 км    ясно 
+8.2 +7.4 95 +9  1023.9  -1.2  750  292    +15.8       
21 18.11.18 тихо ()   10 км    ясно 
+6 +5.6 97 +6  1023.4  -0.5  750  295           
00 19.11.18 140 (ЮВ) 10 км    ясно 
+5.6 +5.1 97 +5  1022.5  -0.9  749  295           
03 19.11.18 090 (В) 0500 м  туман  ?/?  
+4 +4 100 +4  1023  0.3  750  297           
06 19.11.18 тихо ()   10 км  в посл. час туман  5/0 верхняя 
[Ci fib]
+8.6 +7.3 92 +9  1023.1  0.5  750  292  +3.8         
09 19.11.18 290 (З) 10 км    9/5 600 м средняя, верхняя 
[Sc|Ac trans|Ci ing]
+15 +8.2 64 +16  1022  -0.6  750  285           
12 19.11.18 320 (СЗ) 10 км    10/10 600 м 
[Sc]
+14.4 +8 65 +15  1022.5  0.5  750  286           
15 19.11.18 340 (С) 10 км    9/9 600 м 
[Sc]
+11.8 +8.1 78 +12  1024  1.1  751  289    +15.2       
18 19.11.18 320 (СЗ) 10 км    10/10 600 м 
[Sc]
+10.4 +8 85 +10  1025.2  1.2  752  290    +15.2       
21 19.11.18 320 (СЗ) 10 км    10/10 600 м 
[Sc]
+8.6 +6.4 86 +9  1025.9  0.5  752  293           
00 20.11.18 340 (С) 10 км    10/10 600 м 
[Sc]
+6.2 +5.5 95 +6  1027.4  1.2  753  296           
03 20.11.18 020 (С) 10 км    10/10 600 м 
[St]
+6.4 +5.5 94 +7  1028.4  754  296      0.6     
06 20.11.18 160 (Ю) 10 км    10/10 600 м 
[Sc]
+7.1 +5.9 92 +8  1030.4  755  296  +5.5    0.6     
09 20.11.18 140 (ЮВ) 10 км    8/8 600 м 
[Cu med, cong]
+10 +5.9 76 +10  1028.7  -1.4  754  292           
12 20.11.18 140 (ЮВ) 10 км    8/6 600 м верхняя 
[Cu med, cong|Ci fib]
+11.4 +5.8 68 +11  1027.3  -1.2  753  290           
15 20.11.18 110 (В) 10 км    4/0 верхняя 
[Ci fib]
+8.1 +6.1 87 +8  1027  -0.6  753  294    +11.5       
18 20.11.18 110 (В) 10 км    3/0 верхняя 
[Ci fib]
+6.6 +5.2 91 +6  1026  -1.1  752  295    +11.5       
21 20.11.18 140 (ЮВ) 10 км    4/0 верхняя 
[Ci fib]
+5.3 +4.6 95 +4  1023.5  -2.5  750  296           
00 21.11.18 090 (В) 10 км    9/0 верхняя 
[Cs]
+4.8 +4.3 97 +4  1020.8  -2.7  748  296           
03 21.11.18 140 (ЮВ) 10 км    10/10 600 м 
[Sc]
+5.6 +5.1 97 +4  1018.4  -2.2  746  294           
06 21.11.18 140 (ЮВ) 10 км    10/10 600 м 
[Sc]
+8.8 +7.1 89 +7  1017.2  -1  746  290  +4.5         
09 21.11.18 140 (ЮВ) 10 км  слаб. дождь  10/10 600 м 
[Frnb|Ns]
+12 +8.4 79 +11  1012.7  -4.1  743  285           
12 21.11.18 140 (ЮВ) 10 км    10/10 600 м 
[Sc]
+13 +10.2 83 +15  1010.9  -1.7  741  283           
15 21.11.18 320 (СЗ) 10 км    ясно 
+11 +9 87 +12  1011.8  0.7  742  286    +13.8     
Время (UTC), дата Ветер
(°,м/с) 
Видим.   Явления Облачность Т
(°С)
Тd
(°С)
f(%) Тe
(°С)
Pmin
(гПа)
dP
(гПа)
Po
(мм)
O2
(г/м3)
Тmin Tmax R s Состояние
почвы

Для получения пояснительной информации подведите курсор к названию столбца.

ПОГОДА в Учаджи - архив

Всё, что Вы хотите узнать о погоде в Учаджи - удобно и подробно!

Выберите нужную дату (начиная с 1 января 2015* года) и нажмите кнопку "Найти".
Будут отображены архивные сводки погоды по пункту Учаджи, начиная с указанной даты.


Отображать данные в формате CSV (для использования в таблицах Excel)


Внимание! Наш архив погоды предназначен исключительно для личного некоммерческого использования в познавательных целях. Если Вам необходимы официальные справки о состоянии погоды (для производственных, юридических, коммерческих и т.п. целей), обращайтесь в органы Росгидромета.

*Примечание: данная дата относится к архиву по метеостанциям СССР (Россия, СНГ, Балтия).
Архив по метеостанциям Зарубежной Европы и Азии (кроме Китая) хранится 10 дней, по другим регионам земного шара (Китай, Африка, Америка, Австралия, Океания) - 1 день.

Учаджи - район местоположения метеостанции


Название, широта, долгота, высота метеостанции:
Учаджи 38.1°ш. 62.8°д. 185 м над ур. моря [Туркменистан]

Дополнительная информация

В oтличие oт бoльшинства пoгoдных сайтoв мы публикуем пoдрoбную метеoинфoрмацию в детальнoм прoфессиoнальнoм фoрмате.

Характеристики температуры и влажнoсти вoздуха измеряются на высoте 2 м в тени вдали oт зданий и деревьев.
Скoрoсть ветра измеряется на высoте 10 м (на урoвне рoста челoвека скoрoсть ветра ниже в 1.5-2 раза). Если метеoстанция нахoдится в гoрoде или в лесу, тo скoрoсть ветра занижена на 2-4 м/с пo сравнению с oткрытым местoм. Скoрoсть ветра над акватoриями крупных рек и oзёр, а также на вершинах хoлмoв на 2-5 м/с выше, чем в oбычных услoвиях.
Атмoсфернoе давление в разных тoчках местнoсти мoжет значительнo oтличаться oт давления на метеoстанции, в зависимoсти oт услoвий рельефа (при пoдъёме на 10 м давление пoнижается примернo на 1 мм рт.ст.).